Location: *
(60.1759°S, 155.0663°W)
Time: 22:26:09
(UTC+00:00)

Cosmos 1633 - Pass Details

Date: 17 September 2019
Orbit: 464 x 484 km, 82.5° (Epoch: 20 October)

Event Time Altitude Azimuth Distance (km) Brightness Sun altitude
Exits shadow 14:28:02 29° 284° (WNW) 920 3.4 -14.9°
Maximum altitude 14:29:07 36° 246° (WSW) 794 3.3 -14.8°
Drops below altitude 10° 14:32:35 10° 178° (S) 1,703 5.6 -14.4°
Sets 14:34:51 0° 169° (SSE) 2,595 6.7 -14.1°
